Home   Weather   Surrey   Past weeks

Flag for Canada Past Weather in Surrey, British Columbia, Canada — Yesterday and Last 2 Weeks

Now
76 °F

Mild.


Feels Like: 78 °F
Forecast: 52 / 69 °F
Wind: 9 mph from West

Location: P. Meadows Coastal Station

Current Time: Aug 19, 2017 at 3:54:15 pm

Latest Report: Aug 19, 2017 at 3:00 pm


Visibility: N/A

Pressure: 30.17 "Hg

Humidity: 41%

Dew Point: 50 °F

Location of SurreyLocation

Past Weather in Surrey — Graph

°F

Surrey Temperature Yesterday

Maximum temperature yesterday: 75 °F (at 6:00 pm)
Minimum temperature yesterday: 57 °F (at 4:00 am)
Average temperature yesterday: 64 °F

High & Low Weather Summary for the Past Weeks

 TemperatureHumidityPressure
High87 °F (Aug 10, 3:00 pm)100% (Aug 13, 4:00 am)30.20 "Hg (Aug 13, 4:00 am)
Low53 °F (Aug 15, 6:00 am)40% (Aug 15, 3:00 pm)29.82 "Hg (Aug 4, 7:00 pm)
Average68 °F70%29.98 "Hg
* Reported Aug 4 2:00 pm — Aug 19 2:00 pm, Surrey. Weather by CustomWeather, © 2017

Note: Actual official high and low records may vary slightly from our data, if they occured in-between our weather recording intervals... More about our weather records

Advertising

Surrey Weather History for the Previous 24 Hours

Scroll right to see more
 ConditionsComfort  
Time TempWeatherWind HumidityBarometerVisibility
2:00 pm
Sat, Aug 19
74 °FMild.3 mph42%30.19 "HgN/A
1:00 pm72 °FMild.5 mph52%30.19 "HgN/A
12:00 pm70 °FMild.2 mph61%30.20 "HgN/A
11:00 am67 °FMild.3 mph64%30.20 "HgN/A
10:00 am65 °FMild.3 mph69%30.20 "HgN/A
9:00 am62 °FCool.3 mph73%30.19 "HgN/A
8:00 am60 °FCool.7 mph77%30.18 "HgN/A
7:00 am58 °FCool.5 mph81%30.16 "HgN/A
6:00 am59 °FCool.6 mph81%30.15 "HgN/A
5:00 am59 °FCool.6 mph84%30.14 "HgN/A
4:00 am59 °FCool.5 mph83%30.13 "HgN/A
3:00 am60 °FCool.5 mph78%30.12 "HgN/A
2:00 am60 °FCool.5 mph77%30.13 "HgN/A
1:00 am58 °FCool.3 mph86%30.12 "HgN/A
12:00 am60 °FCool.3 mph84%30.12 "HgN/A
11:00 pm
Fri, Aug 18
63 °FMild.2 mph76%30.12 "HgN/A
10:00 pm65 °FMild.1 mph74%30.11 "HgN/A
9:00 pm67 °FMild.2 mph70%30.10 "HgN/A
8:00 pm70 °FMild.2 mph65%30.09 "HgN/A
7:00 pm72 °FMild.6 mph59%30.09 "HgN/A
6:00 pm75 °FMild.1 mph53%30.09 "HgN/A
5:00 pm72 °FMild.2 mph57%30.10 "HgN/A
4:00 pm72 °FMild.2 mph56%30.12 "HgN/A
3:00 pm71 °FMild.5 mph58%30.13 "HgN/A
Weather by CustomWeather, © 2017

See weather overviewHow to use our weather pages